BREEZE-M R/B, 45987

Orbit data source: Space-Track

BREEZE-M R/B, 45987 is space debris in HEO originally from a launch on Thu, 30 Jul 2020 UTC launched from the Tyuratam Missile And Space Complex (TTMTR). Debris objects in space refer to the collection of defunct objects orbiting the Earth. Examples of debris include non-operational satellites, rocket bodies, and fragments generated from explosions, collisions, or faulty payload assembly.

Not visible in the next 10 days
Identifier
45987, 2020-053C
Orbit
HEO
Last TLE update
19 hours ago
Origin
Manufacturer
Khrunichev
Mission
Spacecraft
Bus & Motor
BRIZ, Unknown motor
Mass
~1,600 kg wet, 1,600 kg dry
Launch date (UTC)
2020-07-30 (5 years ago)
Launch vehicle
Unknown
Launch site
Tyuratam Missile And Space Complex (TTMTR)
Object type
Payload
Rocket body
Debris
Shape & HBR
Cyl, 4 m
Radar Cross Section
14.451 m², Medium (>0.1 m² and < 1m²)

Expand to show TLE details & history

TLE from 19 hours ago
0 BREEZE-M R/B
1 45987U 20053C   25191.49070799 -.00000158  00000-0  00000-0 0  9991
2 45987   6.6626  84.8668 4377065  62.6906 334.6910  1.03580912 18703
Epoch: 2025-07-10T11:46Z
TLE epoch observation values (Epoch: 2025-07-10T11:46:37.17Z)
Latitude
0.00002°
Longitude
-20.59978°
Altitude
21,365.736 km
Speed
4.367 km/s
True Right ascension
05h 38m 50s
True Declination
0° 00' 00"
Sunlit
Object was in daylight at epoch
Visualization orbit readout
Latitude
-6.40632°
Longitude
-93.82503°
Altitude
42,278.861 km
Speed
2.593 km/s
Apparent Right ascension
01h 09m 10s
Apparent Declination
-11° 06' 45"
Sunlit
Object is in daylight
Visualization observer readout
Local Sidereal Time
18:58:07
Azimuth
96.835° ESE
Elevation
-9.204°
Doppler factor
1
Orbital elements
Apogee altitude
52,946.397 km
Perigee altitude
16,823.956 km
Semi-major axis
41,263.313 km
Eccentricity
0.43771
Inclination
6.6626°
RAAN
84.8668°
Arg. of periapsis
62.6906°
True anomaly
Unknown
Mean anomaly
334.691°
Eccentric anomaly
Unknown
Mean motion
0.25894 °/min
Orbital period
1,390.29 mins
BSTAR
0
Loading maneuver chart data...
Loading SW <> Apogee altitude chart data...
Loading historical data...
Loading historical data...
Loading historical data...
Loading historical data...
Loading historical data...
Loading historical data...
Loading historical data...
Other satellites on launch #53 in the year 2020 (2020-07-30 UTC)

BREEZE-M R/B Visibility

Observer location: undefined°, undefined°

BREEZE-M R/B is likely not visible in the next few days
Span
Click to sort rows by Start time (UTC) header in descending order
Start Az.
Max El. time (UTC)
Max El. Az.
Max El.
End time (UTC)
End Az.
|